This is the latest recevied weather packets stored in our database for station/object OK2ZAW-23. If no packets are shown the sender has not sent any weather packets the latest 10 day(s).
| Time | Temp. | Humidity | Pressure | Rain* | Wind** | Luminosity | Snow |
|---|---|---|---|---|---|---|---|
| 1777712283 | 17.78° C | 41% | 1022.4 hPa | - | - | 336 W/m² | - |
| 1777711969 | 17.22° C | 43% | 1022.5 hPa | - | - | 335 W/m² | - |
| 1777711342 | 17.22° C | 41% | 1022.5 hPa | - | - | 336 W/m² | - |
| 1777710714 | 17.22° C | 47% | 1022.6 hPa | - | - | 335 W/m² | - |
| 1777710400 | 17.22° C | 45% | 1022.6 hPa | - | - | 335 W/m² | - |
| 1777709459 | 16.67° C | 48% | 1022.6 hPa | - | - | 335 W/m² | - |
| 1777709145 | 16.67° C | 51% | 1022.6 hPa | - | - | 335 W/m² | - |
| 1777708831 | 16.67° C | 55% | 1022.7 hPa | - | - | 335 W/m² | - |
| 1777708517 | 16.11° C | 53% | 1022.6 hPa | - | - | 336 W/m² | - |
| 1777708204 | 16.11° C | 59% | 1022.7 hPa | - | - | 335 W/m² | - |
| 1777707890 | 15.56° C | 60% | 1022.7 hPa | - | - | 335 W/m² | - |
| 1777707576 | 15.56° C | 61% | 1022.8 hPa | - | - | 335 W/m² | - |
| 1777707262 | 15.56° C | 60% | 1022.8 hPa | - | - | 335 W/m² | - |
| 1777706635 | 15° C | 64% | 1022.8 hPa | - | - | 335 W/m² | - |
| 1777706322 | 14.44° C | 60% | 1022.8 hPa | - | - | 335 W/m² | - |
| 1777706008 | 14.44° C | 66% | 1022.7 hPa | - | - | 335 W/m² | - |
| 1777705695 | 13.89° C | 67% | 1022.7 hPa | - | - | 335 W/m² | - |
| 1777704755 | 12.78° C | 67% | 1022.9 hPa | - | - | 335 W/m² | - |
| 1777703814 | 11.67° C | 77% | 1022.9 hPa | - | - | 335 W/m² | - |
| 1777703500 | 11.11° C | 77% | 1022.9 hPa | - | - | 335 W/m² | - |
| 1777702560 | 9.44° C | 81% | 1022.9 hPa | - | - | 335 W/m² | - |
| 1777702247 | 9.44° C | 81% | 1023 hPa | - | - | 335 W/m² | - |
| 1777701621 | 8.33° C | 83% | 1023 hPa | - | - | 335 W/m² | - |
| 1777701308 | 7.78° C | 83% | 1023 hPa | - | - | 335 W/m² | - |
| 1777700995 | 7.78° C | 84% | 1022.9 hPa | - | - | 335 W/m² | - |
* Rain since midnight (hover to see other rain measurements)
** Current wind speed in m/s (hover to see current wind gust speed)